Tracking 31027 objects as of 19-Jul-2025
HD Live streaming from Space Station
objects crossing your sky now

STARLINK-6216

Track STARLINK-6216 now!
10-day predictions
STARLINK-6216 is classified as:


NORAD ID: 56893
Int'l Code: 2023-083T
Perigee: 565.1 km
Apogee: 567.3 km
Inclination: 43.0 °
Period: 95.8 minutes
Semi major axis: 6937 km
RCS: Unknown
Launch date: June 12, 2023
Source: United States (US)
Launch site: AIR FORCE EASTERN TEST RANGE (AFETR)
Your satellite tracking list
IRIDIUM 135
Track 1 satellite(s)




NASA's NSSDC Master Catalog

Two Line Element Set (TLE):
1 56893U 23083T   25199.50251134 -.00000274  00000-0 -51811-5 0  9990
2 56893  43.0036 274.1954 0001581 273.7723  86.2938 15.02535669116564
Source of the keplerian elements: AFSPC